DW0156 Weather Reports


time (UTC)temp
F
wind
direction
speed
knots
gust
knots
rain 1hr
in
rain 24hr
in
rain mn
in
humidity
%
barometer
mb
20260905032152 60 263 7.8 16.5 0.00 0.15 0.14 66 1014.1
20260905031028 59 263 7.0 16.5 0.00 0.15 0.14 71 1014.2
20260905025907 59 263 9.6 18.2 0.00 0.16 0.14 69 1013.9
20260905025402 60 263 9.6 18.2 0.00 0.16 0.14 65 1013.9
20260905024843 60 263 8.7 17.4 0.00 0.16 0.14 64 1013.9
20260905024333 61 263 7.8 16.5 0.00 0.16 0.14 63 1013.9
20260905023818 61 263 7.0 16.5 0.00 0.16 0.14 63 1013.9
20260905022654 59 263 8.7 21.7 0.00 0.16 0.14 65 1013.9
20260905021558 59 263 8.7 21.7 0.00 0.16 0.14 66 1013.9
20260905021049 59 263 8.7 17.4 0.00 0.16 0.14 65 1013.7
20260905020600 59 263 7.0 17.4 0.00 0.18 0.14 66 1013.7
20260905020044 59 263 6.1 15.6 0.00 0.18 0.14 66 1013.7
20260905015526 60 263 5.2 15.6 0.00 0.18 0.14 66 1013.5
20260905015031 60 263 5.2 15.6 0.00 0.18 0.14 66 1013.5
20260905014535 60 263 6.1 15.6 0.00 0.18 0.14 66 1013.5
20260905014017 59 263 5.2 14.8 0.00 0.18 0.14 66 1013.6
20260905013457 59 263 6.1 16.5 0.00 0.19 0.14 67 1013.6
20260905012954 59 263 7.8 16.5 0.00 0.20 0.14 67 1013.6
20260905011818 59 263 9.6 17.4 0.00 0.20 0.14 66 1013.3
20260905011304 58 263 10.4 21.7 0.00 0.20 0.14 68 1013.1
20260905010749 58 263 9.6 21.7 0.00 0.20 0.14 70 1013.1
20260905005624 57 263 7.0 21.7 0.00 0.20 0.14 79 1012.7
20260905005125 57 288 5.2 15.6 0.00 0.20 0.14 85 1012.7
20260905004606 56 263 5.2 15.6 0.00 0.20 0.14 86 1012.7
20260905004102 56 263 5.2 15.6 0.00 0.20 0.14 86 1012.7
20260905003543 56 263 5.2 15.6 0.00 0.20 0.14 86 1012.7
20260905003039 56 263 4.3 10.4 0.00 0.20 0.14 86 1012.7
20260905002520 55 263 5.2 15.6 0.03 0.20 0.14 86 1012.6
20260905002021 56 263 6.1 15.6 0.05 0.20 0.14 85 1012.6
20260905001517 56 263 5.2 16.5 0.11 0.20 0.14 85 1012.6
20260905001007 56 263 5.2 16.5 0.75 0.15 0.11 85 1012.4
20260905000505 56 263 6.1 16.5 0.00 0.14 0.08 85 1012.4
20260905000011 56 263 6.1 16.5 0.00 0.14 0.08 85 1012.4
20260904235508 56 263 6.1 13.9 0.00 0.14 0.08 85 1012.2
20260904234955 56 263 5.2 13.9 0.00 0.14 0.08 86 1012.2
20260904234442 56 263 5.2 12.2 0.00 0.14 0.08 86 1012.2
20260904233934 56 263 5.2 13.9 0.00 0.14 0.08 86 1012.1
20260904232802 55 263 4.3 13.9 0.03 0.14 0.08 85 1011.9
20260904232253 55 263 5.2 13.0 0.03 0.14 0.08 84 1011.9
20260904231755 56 263 5.2 14.8 0.07 0.14 0.08 82 1011.9
20260904231301 57 263 6.1 14.8 0.11 0.14 0.08 81 1011.5
20260904230802 58 263 5.2 14.8 0.27 0.13 0.07 80 1011.5
20260904230245 58 263 4.3 14.8 0.87 0.07 0.02 77 1011.5
20260904225735 58 263 2.6 13.0 0.00 0.07 0.00 76 1011.2
20260904225222 58 263 2.6 11.3 0.00 0.07 0.00 76 1011.2
20260904224111 58 263 2.6 13.0 0.00 0.07 0.00 76 1011.2
20260904223558 58 263 3.5 13.0 0.00 0.07 0.00 76 1011.2
20260904223052 58 263 3.5 13.0 0.00 0.07 0.00 77 1011.2
20260904222533 58 263 3.5 13.0 0.00 0.07 0.00 77 1011.1
20260904222030 57 263 3.5 12.2 0.00 0.07 0.00 78 1011.1
20260904221517 57 263 3.5 12.2 0.00 0.07 0.00 78 1011.1
20260904221007 57 263 3.5 9.6 0.00 0.07 0.00 78 1010.9
20260904220449 57 263 3.5 9.6 0.00 0.07 0.00 79 1010.9
20260904215937 57 263 2.6 8.7 0.00 0.07 0.00 79 1010.9
20260904215439 57 263 3.5 9.6 0.00 0.07 0.00 79 1010.6
20260904214942 57 263 3.5 9.6 0.00 0.07 0.00 79 1010.6
20260904213216 57 263 2.6 11.3 0.00 0.07 0.00 78 1010.6
20260904212038 58 263 2.6 12.2 0.00 0.07 0.00 78 1010.6
20260904211527 58 263 3.5 12.2 0.00 0.07 0.00 77 1010.6
20260904210402 58 263 3.5 10.4 0.00 0.07 0.00 77 1010.4
20260904205208 58 263 2.6 8.7 0.00 0.07 0.00 76 1010.4
20260904204108 58 263 2.6 13.0 0.00 0.07 0.00 75 1010.2
20260904202932 58 263 5.2 12.2 0.00 0.07 0.00 73 1010.2
20260904202432 58 263 4.3 13.0 0.00 0.07 0.00 73 1010.1
20260904201923 58 263 6.1 13.0 0.00 0.07 0.00 73 1010.1
20260904201429 58 263 7.0 16.5 0.00 0.07 0.00 73 1010.1
20260904200929 59 263 7.0 16.5 0.00 0.07 0.00 74 1010.0
20260904200431 59 263 7.8 17.4 0.00 0.07 0.00 75 1010.0
20260904195921 59 263 7.0 17.4 0.00 0.07 0.00 76 1010.0
20260904195418 59 263 6.1 17.4 0.00 0.07 0.00 77 1009.7
20260904194912 59 263 5.2 17.4 0.00 0.07 0.00 78 1009.7
20260904194408 60 263 5.2 13.0 0.00 0.06 0.00 79 1009.7
20260904193917 60 263 4.3 12.2 0.00 0.06 0.00 79 1009.5
20260904193402 60 263 3.5 12.2 0.00 0.06 0.00 80 1009.5
20260904192853 60 263 3.5 13.9 0.00 0.06 0.00 80 1009.2
20260904192345 60 263 3.5 13.9 0.00 0.06 0.00 80 1009.2
20260904191845 60 263 3.5 13.9 0.00 0.06 0.00 80 1009.2
20260904191330 60 263 2.6 13.9 0.00 0.06 0.00 80 1009.1
20260904190820 60 263 2.6 11.3 0.00 0.06 0.00 80 1009.1
20260904190307 60 263 2.6 9.6 0.00 0.06 0.00 79 1009.1
20260904185812 60 263 2.6 8.7 0.00 0.06 0.00 79 1008.9
20260904185256 60 263 1.7 11.3 0.00 0.06 0.00 79 1008.9
20260904184739 60 263 1.7 11.3 0.00 0.06 0.00 78 1008.9
20260904184235 60 263 2.6 11.3 0.00 0.06 0.00 78 1008.6
20260904183738 60 263 2.6 11.3 0.00 0.06 0.00 79 1008.6
20260904183222 60 263 1.7 7.0 0.00 0.06 0.00 80 1008.6
20260904182732 60 263 0.9 7.0 0.00 0.06 0.00 81 1008.8
20260904182221 60 263 0.9 7.0 0.00 0.06 0.00 81 1008.8
20260904181713 60 263 0.9 6.1 0.00 0.06 0.00 81 1008.8
20260904181214 60 263 0.9 6.1 0.00 0.06 0.00 81 1008.5
20260904180714 60 263 0.9 7.8 0.00 0.06 0.00 81 1008.5
20260904180216 60 263 1.7 7.8 0.00 0.06 0.00 81 1008.5
20260904175724 60 263 1.7 9.6 0.00 0.06 0.00 81 1008.4
20260904175211 60 263 0.9 9.6 0.00 0.06 0.00 81 1008.4
20260904174710 60 263 0.9 9.6 0.00 0.06 0.00 81 1008.4
20260904174207 61 263 1.7 9.6 0.00 0.06 0.00 81 1008.4
20260904173042 61 263 1.7 7.0 0.00 0.06 0.00 81 1008.4
20260904171932 61 263 1.7 4.3 0.00 0.06 0.00 81 1008.5
20260904171424 61 263 0.9 4.3 0.00 0.06 0.00 81 1008.5
20260904170932 61 263 0.9 5.2 0.00 0.06 0.00 80 1008.5
20260904170427 61 263 0.9 5.2 0.00 0.06 0.00 80 1008.5
20260904165916 61 263 0.9 5.2 0.00 0.06 0.00 80 1008.5
20260904165359 61 263 0.9 5.2 0.00 0.06 0.00 80 1008.6
20260904164248 61 263 1.7 4.3 0.00 0.06 0.00 80 1008.8
20260904163752 61 263 1.7 4.3 0.00 0.06 0.00 80 1008.8
20260904163239 61 263 1.7 4.3 0.00 0.06 0.00 80 1008.8
20260904162724 61 263 0.9 4.3 0.00 0.06 0.00 80 1008.8
20260904162232 61 263 0.9 3.5 0.00 0.06 0.00 80 1008.8
20260904161137 61 263 0.9 3.5 0.00 0.06 0.00 80 1008.5
20260904160020 61 263 0.0 0.0 0.00 0.06 0.00 80 1008.5
20260904155502 61 263 0.0 0.0 0.00 0.06 0.00 80 1008.4
20260904154953 61 263 0.0 2.6 0.00 0.06 0.00 80 1008.4
20260904154448 61 263 0.0 1.7 0.00 0.06 0.00 80 1008.4
20260904153947 61 263 0.0 0.0 0.00 0.06 0.00 80 1008.5
20260904153456 61 263 0.0 3.5 0.00 0.06 0.00 80 1008.5
20260904152949 61 263 0.9 3.5 0.00 0.06 0.00 80 1008.5
20260904152437 61 263 0.9 3.5 0.00 0.06 0.00 80 1008.6
20260904151937 61 263 0.9 3.5 0.00 0.06 0.00 80 1008.6
20260904151431 61 263 0.0 3.5 0.00 0.06 0.00 79 1008.6
20260904150928 61 263 0.0 0.9 0.00 0.06 0.00 79 1009.0
20260904150434 61 263 0.0 0.0 0.00 0.06 0.00 79 1009.0
20260904145918 62 263 0.0 0.9 0.00 0.06 0.00 78 1009.0
20260904145423 62 263 0.0 0.0 0.00 0.06 0.00 78 1008.6
20260904144257 62 263 0.0 0.0 0.00 0.06 0.00 78 1008.5
20260904143755 62 263 0.0 0.0 0.00 0.06 0.00 77 1008.5
20260904143241 62 263 0.0 0.0 0.00 0.06 0.00 77 1008.5
20260904142741 62 263 0.9 2.6 0.00 0.06 0.06 77 1009.0
20260904141640 62 263 0.9 5.2 0.00 0.06 0.06 76 1009.0
20260904141128 63 263 1.7 5.2 0.00 0.06 0.06 76 1008.5
20260904140001 63 263 1.7 5.2 0.00 0.05 0.05 74 1008.5
20260904135448 63 263 1.7 7.0 0.00 0.05 0.05 74 1008.6
20260904134932 63 263 0.9 7.0 0.00 0.05 0.05 74 1008.6
20260904134426 63 263 1.7 8.7 0.00 0.05 0.05 73 1008.6
20260904133915 64 263 1.7 8.7 0.00 0.05 0.05 73 1009.0
20260904133417 64 263 2.6 8.7 0.00 0.05 0.05 72 1009.0
20260904132923 64 263 2.6 8.7 0.00 0.05 0.05 72 1009.0
20260904132404 64 263 2.6 7.8 0.00 0.05 0.05 71 1008.5
20260904131905 64 263 2.6 8.7 0.00 0.05 0.05 71 1008.5
20260904130753 64 263 2.6 8.7 0.00 0.05 0.05 72 1008.3
20260904130238 64 263 2.6 8.7 0.00 0.05 0.05 72 1008.3
20260904125729 64 263 2.6 8.7 0.00 0.05 0.05 72 1008.2
20260904125227 64 263 2.6 9.6 0.00 0.05 0.05 71 1008.2
20260904124709 64 263 3.5 9.6 0.00 0.05 0.05 71 1008.2
20260904123546 64 263 2.6 10.4 0.00 0.05 0.05 70 1008.5
20260904123055 65 263 3.5 10.4 0.00 0.05 0.05 71 1008.5
20260904122540 64 263 3.5 10.4 0.00 0.05 0.05 71 1008.8
20260904122038 64 263 2.6 9.6 0.00 0.05 0.05 71 1008.8
20260904120936 64 263 2.6 8.7 0.00 0.05 0.05 71 1008.6
20260904115810 65 263 3.5 10.4 0.00 0.05 0.05 71 1009.0
20260904115251 65 263 3.5 10.4 0.00 0.05 0.05 71 1009.0
20260904114734 65 263 3.5 10.4 0.00 0.05 0.05 71 1009.0
20260904114230 65 263 3.5 9.6 0.00 0.05 0.05 71 1009.1
20260904113732 65 263 3.5 9.6 0.00 0.05 0.05 70 1009.1
20260904113217 65 263 3.5 10.4 0.00 0.05 0.05 70 1009.1
20260904112050 66 263 2.6 10.4 0.00 0.05 0.05 70 1009.0
20260904110906 66 263 3.5 11.3 0.00 0.05 0.05 69 1009.0
20260904110358 66 263 3.5 11.3 0.00 0.05 0.05 69 1009.0
20260904105843 66 263 3.5 13.0 0.00 0.05 0.05 69 1009.1
20260904105344 66 263 2.6 13.0 0.00 0.05 0.05 69 1009.1
20260904104832 66 263 3.5 13.0 0.00 0.05 0.05 70 1009.1
20260904104323 66 263 3.5 13.0 0.00 0.05 0.05 70 1009.1
20260904103152 66 263 2.6 8.7 0.00 0.05 0.05 71 1009.1
20260904102638 66 263 2.6 8.7 0.00 0.05 0.05 72 1009.1
20260904102121 66 263 3.5 12.2 0.00 0.05 0.05 72 1009.1
20260904101626 66 263 2.6 12.2 0.00 0.05 0.05 73 1009.1
20260904100442 66 263 2.6 12.2 0.00 0.05 0.05 75 1009.2
20260904095947 66 263 2.6 9.6 0.00 0.05 0.05 75 1009.2
20260904095433 66 263 2.6 9.6 0.00 0.05 0.05 75 1009.0
20260904094928 66 263 2.6 9.6 0.00 0.05 0.05 75 1009.0
20260904094419 66 263 2.6 9.6 0.00 0.05 0.05 75 1009.0
20260904093858 66 263 1.7 7.8 0.00 0.05 0.05 75 1008.6
20260904093338 66 263 1.7 8.7 0.00 0.05 0.05 75 1008.6
20260904092830 66 263 1.7 8.7 0.00 0.05 0.05 75 1008.5
20260904092321 66 263 2.6 8.7 0.00 0.05 0.05 75 1008.5
20260904091816 66 263 3.5 8.7 0.00 0.05 0.05 75 1008.5
20260904091321 66 263 3.5 8.7 0.00 0.05 0.05 75 1008.6
20260904090822 66 263 2.6 8.7 0.00 0.05 0.05 76 1008.6
20260904090306 66 263 1.7 8.7 0.00 0.05 0.05 75 1008.6
20260904085811 66 263 1.7 8.7 0.00 0.05 0.05 76 1008.6
20260904084656 66 263 2.6 8.7 0.00 0.05 0.05 76 1008.6
20260904084159 66 263 2.6 5.2 0.00 0.05 0.05 76 1008.5
20260904083646 67 263 2.6 7.0 0.00 0.05 0.05 75 1008.5
20260904083131 67 263 2.6 7.0 0.00 0.05 0.05 75 1008.5
20260904082618 67 263 2.6 7.0 0.00 0.05 0.05 75 1008.6
20260904082120 67 263 2.6 7.0 0.00 0.05 0.05 75 1008.6
20260904081608 67 263 2.6 5.2 0.00 0.05 0.05 75 1008.6
20260904081112 67 263 1.7 8.7 0.00 0.05 0.05 74 1008.7
20260904080557 67 263 1.7 8.7 0.00 0.05 0.05 74 1008.7
20260904080045 67 263 1.7 8.7 0.00 0.05 0.05 74 1008.7
20260904074920 67 263 2.6 7.8 0.00 0.05 0.05 73 1008.8
20260904074423 67 263 2.6 8.7 0.00 0.05 0.05 73 1008.8
20260904073924 67 263 2.6 8.7 0.00 0.05 0.05 73 1009.0
20260904073419 68 263 2.6 8.7 0.00 0.05 0.05 73 1009.0
20260904072908 68 263 1.7 8.7 0.00 0.05 0.05 73 1009.1
20260904072400 68 263 1.7 7.0 0.00 0.05 0.05 73 1009.1
20260904071905 68 263 0.9 7.0 0.00 0.05 0.05 73 1009.1
20260904071346 68 263 1.7 7.0 0.00 0.05 0.05 73 1009.1
20260904070827 68 263 2.6 7.0 0.00 0.05 0.05 73 1009.1
20260904070315 68 263 2.6 7.0 0.00 0.05 0.05 73 1009.1
20260904065757 67 263 1.7 7.0 0.00 0.05 0.05 72 1009.1
20260904064619 68 263 1.7 5.2 0.00 0.05 0.05 71 1009.1
20260904064119 68 263 1.7 9.6 0.00 0.05 0.05 70 1009.2
20260904063617 68 263 2.6 9.6 0.00 0.05 0.05 69 1009.2
20260904063100 68 263 3.5 9.6 0.00 0.05 0.05 68 1009.2
20260904061933 69 263 3.5 12.2 0.00 0.05 0.05 68 1009.3
20260904061423 69 263 3.5 12.2 0.00 0.05 0.05 68 1009.3
20260904060914 69 263 3.5 12.2 0.00 0.05 0.05 68 1009.4
20260904060417 69 263 3.5 12.2 0.00 0.05 0.05 68 1009.4
20260904055913 68 263 2.6 8.7 0.00 0.05 0.05 69 1009.4
20260904055408 68 263 2.6 8.7 0.00 0.05 0.05 69 1009.6
20260904054855 68 263 1.7 8.7 0.00 0.05 0.05 69 1009.6
20260904054357 68 263 1.7 8.7 0.00 0.05 0.05 70 1009.9
20260904053840 67 263 2.6 8.7 0.00 0.05 0.05 69 1009.9
20260904053323 67 263 2.6 8.7 0.00 0.05 0.05 70 1009.9
20260904052145 67 263 2.6 10.4 0.00 0.05 0.05 72 1010.0
20260904051649 66 263 4.3 10.4 0.00 0.05 0.05 72 1010.0
20260904050520 65 263 2.6 9.6 0.00 0.05 0.05 73 1010.6
20260904050018 65 263 0.9 7.8 0.00 0.05 0.05 74 1010.6
20260904045502 65 263 0.9 7.8 0.00 0.05 0.05 74 1010.5
20260904044952 65 263 1.7 9.6 0.00 0.05 0.05 73 1010.5
20260904044455 66 263 2.6 9.6 0.00 0.05 0.05 71 1010.5
20260904043952 66 263 2.6 9.6 0.00 0.04 0.04 68 1010.7
20260904042825 65 263 3.5 9.6 0.00 0.04 0.04 69 1010.7
20260904042329 65 263 3.5 9.6 0.00 0.04 0.04 69 1010.7
20260904041817 65 263 3.5 8.7 0.00 0.04 0.04 69 1010.7
20260904041304 65 263 3.5 9.6 0.00 0.04 0.04 69 1011.6
20260904040802 65 263 3.5 9.6 0.00 0.04 0.04 70 1011.6
20260904040258 65 263 3.5 9.6 0.00 0.04 0.04 70 1011.6
20260904035752 65 263 3.5 9.6 0.00 0.04 0.04 71 1011.5
20260904035253 65 263 4.3 11.3 0.00 0.04 0.04 71 1011.5
20260904034739 65 263 4.3 11.3 0.00 0.04 0.04 72 1011.5
20260904034229 65 263 4.3 11.3 0.00 0.04 0.04 75 1011.7
20260904033738 64 263 3.5 11.3 0.00 0.04 0.04 75 1011.7
20260904033231 64 263 2.6 10.4 0.00 0.04 0.04 78 1011.7